Location: Newark
(44.1667°N, 8.2500°E)
Time: 14:29:55
(UTC+00:00)

Courier 1B Rocket - Visible Passes

Search period start: 20 January 2021 00:00
Search period end: 30 January 2021 00:00
Orbit: 920 x 1202 km, 28.2° (Epoch: 19 January)

Date Brightness Start Highest point End Pass type
(mag) Time Alt. Az. Time Alt. Az. Time Alt. Az.
22 Jan 7.8 05:58:25 10° S 06:00:27 11° SSE 06:02:31 10° SE visible
24 Jan 7.5 05:47:46 10° SSW 05:51:12 14° SSE 05:54:45 10° SE visible
25 Jan 7.6 04:49:18 10° SSE 04:50:32 11° SSE 04:51:47 10° SE visible
26 Jan 7.3 05:37:57 10° SSW 05:42:00 17° SSE 05:46:14 10° SE visible
27 Jan 7.3 04:38:19 10° S 04:41:20 13° SSE 04:44:25 10° SE visible
28 Jan 7.1 05:28:32 10° SSW 05:32:53 19° S 05:37:24 10° SE visible
29 Jan 7.0 04:28:53 11° SSW 04:32:11 16° SSE 04:36:00 10° SE visible
